Tracking 22124 objects as of 23-Jan-2021
HD Live streaming from Space Station
objects crossing your sky now

BRAZILSAT 1

Track BRAZILSAT 1 now!
BRAZILSAT 1 is classified as:


NORAD ID: 15561
Int'l Code: 1985-015B
Perigee: 35,969.9 km
Apogee: 36,027.6 km
Inclination: 15.1 °
Period: 1,446.6 minutes
Semi major axis: 42369 km
RCS: 2.7147 m2 (large)
Launch date: February 8, 1985
Source: Brazil (BRAZ)
Launch site: FRENCH GUIANA (FRGUI)
aabbcc
Your satellite tracking list
Your tracking list is empty




NASA's NSSDC Master Catalog

Two Line Element Set (TLE):
1 15561U 85015B   21022.51133260 -.00000076  00000-0  00000-0 0  9999
2 15561  15.1452   0.4090 0006808 340.3903 231.9304  0.99544921 26716
Source of the keplerian elements: AFSPC